• En Estados Unidos
  • Lista de países
  • Para 7 días
  • Temperatura del agua
  • Mapa Satelital
  • El tiempo en el mapa
  • Informadores
  • user-avatar
    Iniciar sesión

    Tiempo cada hora Satif

    Hoy, 24 Junio, Domingo

    Tiempo Temperatura Precipitaciones Viento Presión Humedad
    00:00 +21°C° 0 mm 1 mps 674 mmHg 56%
    01:00 +21°C° 0 mm 1 mps 674 mmHg 56%
    02:00 +21°C° 0 mm 1 mps 674 mmHg 56%
    03:00 +20°C° 0 mm 1 mps 673 mmHg 56%
    04:00 +21°C° 0 mm 1 mps 674 mmHg 53%
    05:00 +20°C° 0 mm 0 mps 674 mmHg 49%
    06:00 +21°C° 0 mm 0 mps 674 mmHg 46%
    07:00 +24°C° 0 mm 1 mps 674 mmHg 42%
    08:00 +26°C° 0 mm 2 mps 675 mmHg 38%
    09:00 +27°C° 0 mm 2 mps 675 mmHg 34%
    10:00 +28°C° 0 mm 3 mps 675 mmHg 32%
    11:00 +29°C° 0 mm 3 mps 675 mmHg 30%
    12:00 +30°C° 0 mm 4 mps 676 mmHg 28%
    13:00 +30°C° 0 mm 4 mps 675 mmHg 28%
    14:00 +32°C° 0 mm 5 mps 675 mmHg 28%
    15:00 +32°C° 0 mm 5 mps 675 mmHg 28%
    16:00 +30°C° 0 mm 5 mps 674 mmHg 32%
    17:00 +29°C° 0 mm 4 mps 674 mmHg 35%
    18:00 +28°C° 0 mm 4 mps 673 mmHg 39%
    19:00 +26°C° 0 mm 3 mps 674 mmHg 44%
    20:00 +25°C° 0 mm 3 mps 674 mmHg 49%
    21:00 +23°C° 0 mm 2 mps 674 mmHg 55%
    22:00 +23°C° 0 mm 2 mps 673 mmHg 57%
    23:00 +21°C° 0 mm 2 mps 673 mmHg 59%

    Mañana, 25 Junio, Lunes

    Tiempo Temperatura Precipitaciones Viento Presión Humedad
    00:00 +20°C° 0 mm 2 mps 673 mmHg 61%
    01:00 +21°C° 0 mm 1 mps 673 mmHg 63%
    02:00 +20°C° 0 mm 1 mps 672 mmHg 64%
    03:00 +20°C° 0 mm 1 mps 672 mmHg 65%
    04:00 +20°C° 0 mm 1 mps 672 mmHg 62%
    05:00 +20°C° 0 mm 1 mps 672 mmHg 59%
    06:00 +21°C° 0 mm 1 mps 673 mmHg 57%
    07:00 +22°C° 0 mm 1 mps 673 mmHg 47%
    08:00 +24°C° 0 mm 2 mps 674 mmHg 38%
    09:00 +25°C° 0 mm 2 mps 674 mmHg 29%
    10:00 +26°C° 0 mm 3 mps 674 mmHg 27%
    11:00 +27°C° 0 mm 3 mps 675 mmHg 25%
    12:00 +28°C° 0 mm 4 mps 675 mmHg 22%
    13:00 +28°C° 0 mm 4 mps 675 mmHg 23%
    14:00 +29°C° 0 mm 4 mps 675 mmHg 24%
    15:00 +29°C° 0 mm 5 mps 674 mmHg 24%
    16:00 +28°C° 0 mm 4 mps 674 mmHg 27%
    17:00 +27°C° 0 mm 4 mps 674 mmHg 29%
    18:00 +26°C° 0 mm 4 mps 674 mmHg 32%
    19:00 +25°C° 0 mm 3 mps 674 mmHg 36%
    20:00 +22°C° 0 mm 3 mps 674 mmHg 40%
    21:00 +21°C° 0 mm 2 mps 674 mmHg 43%
    22:00 +21°C° 0 mm 2 mps 674 mmHg 44%
    23:00 +20°C° 0 mm 2 mps 673 mmHg 45%

    Pasado mañana, 26 Junio, Martes

    Tiempo Temperatura Precipitaciones Viento Presión Humedad
    00:00 +19°C° 0 mm 2 mps 673 mmHg 46%
    01:00 +20°C° 0 mm 1 mps 673 mmHg 47%
    02:00 +19°C° 0 mm 1 mps 672 mmHg 48%
    03:00 +17°C° 0 mm 0 mps 672 mmHg 49%
    04:00 +18°C° 0 mm 0 mps 673 mmHg 45%
    05:00 +18°C° 0 mm 0 mps 673 mmHg 42%
    06:00 +19°C° 0 mm 0 mps 673 mmHg 39%
    07:00 +23°C° 0 mm 1 mps 674 mmHg 35%
    08:00 +24°C° 0 mm 2 mps 674 mmHg 32%
    09:00 +25°C° 0 mm 3 mps 675 mmHg 29%
    10:00 +26°C° 0 mm 3 mps 675 mmHg 28%
    11:00 +27°C° 0 mm 4 mps 675 mmHg 27%
    12:00 +28°C° 0 mm 4 mps 675 mmHg 25%
    13:00 +28°C° 0 mm 5 mps 675 mmHg 26%
    14:00 +28°C° 0 mm 5 mps 675 mmHg 27%
    15:00 +28°C° 0 mm 5 mps 674 mmHg 27%
    16:00 +27°C° 0 mm 5 mps 674 mmHg 30%
    17:00 +26°C° 0 mm 5 mps 674 mmHg 33%
    18:00 +25°C° 0 mm 4 mps 674 mmHg 36%
    19:00 +24°C° 0 mm 3 mps 674 mmHg 39%
    20:00 +22°C° 0 mm 3 mps 674 mmHg 43%
    21:00 +21°C° 0 mm 2 mps 674 mmHg 47%
    22:00 +20°C° 0 mm 2 mps 674 mmHg 48%
    23:00 +19°C° 0 mm 2 mps 674 mmHg 50%

    27 Junio, Miércoles

    Tiempo Temperatura Precipitaciones Viento Presión Humedad
    00:00 +20°C° 0 mm 1 mps 673 mmHg 51%
    01:00 +19°C° 0 mm 1 mps 673 mmHg 52%
    02:00 +19°C° 0 mm 1 mps 673 mmHg 53%
    03:00 +19°C° 0 mm 1 mps 672 mmHg 53%
    04:00 +19°C° 0 mm 1 mps 673 mmHg 50%
    05:00 +20°C° 0 mm 1 mps 673 mmHg 46%
    06:00 +18°C° 0 mm 0 mps 673 mmHg 42%
    07:00 +22°C° 0 mm 1 mps 674 mmHg 36%
    08:00 +24°C° 0 mm 1 mps 674 mmHg 31%
    09:00 +25°C° 0 mm 1 mps 675 mmHg 25%
    10:00 +26°C° 0 mm 2 mps 675 mmHg 24%
    11:00 +27°C° 0 mm 2 mps 675 mmHg 22%
    12:00 +28°C° 0 mm 2 mps 675 mmHg 21%
    13:00 +29°C° 0 mm 3 mps 675 mmHg 22%
    14:00 +29°C° 0 mm 3 mps 675 mmHg 23%
    15:00 +29°C° 0 mm 4 mps 675 mmHg 24%
    16:00 +29°C° 0 mm 4 mps 674 mmHg 27%
    17:00 +28°C° 0 mm 4 mps 674 mmHg 30%
    18:00 +27°C° 0 mm 4 mps 674 mmHg 33%
    19:00 +26°C° 0 mm 3 mps 674 mmHg 37%
    20:00 +25°C° 0 mm 3 mps 674 mmHg 41%
    21:00 +23°C° 0 mm 2 mps 674 mmHg 44%
    22:00 +23°C° 0 mm 2 mps 674 mmHg 45%
    23:00 +21°C° 0 mm 2 mps 673 mmHg 46%

    28 Junio, Jueves

    Tiempo Temperatura Precipitaciones Viento Presión Humedad
    00:00 +22°C° 0 mm 1 mps 673 mmHg 46%
    01:00 +22°C° 0 mm 1 mps 673 mmHg 47%
    02:00 +21°C° 0 mm 1 mps 672 mmHg 47%
    03:00 +21°C° 0 mm 1 mps 672 mmHg 47%
    04:00 +22°C° 0 mm 1 mps 672 mmHg 44%
    05:00 +22°C° 0 mm 1 mps 673 mmHg 42%
    06:00 +23°C° 0 mm 1 mps 673 mmHg 39%
    07:00 +25°C° 0 mm 2 mps 673 mmHg 35%
    08:00 +27°C° 0 mm 2 mps 674 mmHg 32%
    09:00 +29°C° 0 mm 3 mps 674 mmHg 28%
    10:00 +30°C° 0 mm 3 mps 674 mmHg 27%
    11:00 +32°C° 0 mm 4 mps 674 mmHg 26%
    12:00 +33°C° 0 mm 4 mps 674 mmHg 24%
    13:00 +33°C° 0 mm 4 mps 674 mmHg 24%
    14:00 +33°C° 0 mm 4 mps 674 mmHg 24%
    15:00 +34°C° 0 mm 4 mps 674 mmHg 24%
    16:00 +33°C° 0,1 mm 4 mps 673 mmHg 25%
    17:00 +33°C° 0,1 mm 4 mps 673 mmHg 26%
    18:00 +31°C° 0,1 mm 3 mps 673 mmHg 27%
    19:00 +30°C° 0 mm 3 mps 673 mmHg 29%
    20:00 +29°C° 0 mm 3 mps 673 mmHg 31%
    21:00 +28°C° 0 mm 3 mps 673 mmHg 32%
    22:00 +27°C° 0 mm 3 mps 672 mmHg 32%
    23:00 +27°C° 0 mm 2 mps 672 mmHg 33%

    29 Junio, Viernes

    Tiempo Temperatura Precipitaciones Viento Presión Humedad
    00:00 +27°C° 0 mm 2 mps 671 mmHg 33%
    01:00 +26°C° 0 mm 3 mps 671 mmHg 33%
    02:00 +26°C° 0 mm 3 mps 671 mmHg 33%
    03:00 +25°C° 0 mm 3 mps 670 mmHg 34%
    04:00 +26°C° 0 mm 3 mps 671 mmHg 33%
    05:00 +26°C° 0 mm 4 mps 671 mmHg 32%
    06:00 +27°C° 0 mm 4 mps 672 mmHg 32%
    07:00 +29°C° 0 mm 5 mps 672 mmHg 28%
    08:00 +32°C° 0 mm 6 mps 673 mmHg 24%
    09:00 +34°C° 0 mm 7 mps 673 mmHg 20%
    10:00 +35°C° 0 mm 8 mps 673 mmHg 18%
    11:00 +37°C° 0 mm 8 mps 674 mmHg 17%
    12:00 +38°C° 0 mm 9 mps 674 mmHg 15%
    13:00 +38°C° 0 mm 9 mps 673 mmHg 15%
    14:00 +39°C° 0 mm 9 mps 673 mmHg 14%
    15:00 +39°C° 0 mm 9 mps 673 mmHg 13%
    16:00 +39°C° 0 mm 8 mps 673 mmHg 14%
    17:00 +38°C° 0 mm 7 mps 673 mmHg 14%
    18:00 +38°C° 0 mm 7 mps 673 mmHg 15%
    19:00 +35°C° 0 mm 6 mps 672 mmHg 17%
    20:00 +33°C° 0 mm 5 mps 672 mmHg 19%
    21:00 +32°C° 0 mm 5 mps 672 mmHg 22%
    22:00 +30°C° 0 mm 5 mps 672 mmHg 24%
    23:00 +29°C° 0 mm 5 mps 672 mmHg 25%
    Mostrar más